Regional Weather Roundup
Issued by NWS

Home | Current Version | Previous Version | Graphics & Text | Print | Product List | Glossary On
Versions: 1 2 3 4 5 6 7 8 9 10 11 12 13 14 15 16 17 18 19 20 21 22 23 24 25 26 27 28 29 30 31 32 33 34 35 36 37 38 39 40 41 42 43 44 45 46 47 48 49 50
000
ASUS43 KLOT 182206
RWRIL

ILLINOIS REGIONAL WEATHER ROUNDUP
NATIONAL WEATHER SERVICE CHICAGO/ROMEOVILLE IL
400 PM CST THU DEC 18 2014

NOTE: "FAIR" INDICATES FEW OR NO CLOUDS BELOW 12,000 FEET WITH NO
SIGNIFICANT WEATHER AND/OR OBSTRUCTIONS TO VISIBILITY.

* THESE STATIONS ARE NOT UNDER NWS QUALITY CONTROL. THEY ALSO MAY NOT
  REPORT WEATHER SUCH AS PRECIPITATION OR FOG.

ILZ001-002-007-009-015-016-024-182300-
NORTHWEST ILLINOIS

CITY           SKY/WX    TMP DP  RH WIND       PRES   REMARKS
MOLINE         MOCLDY    29  17  61 NW6       30.25S WCI  23
STERLING*      CLOUDY    27  18  69 N7        30.26R WCI  19
SAVANNA*       PTCLDY    25  18  74 W3        30.26S
$$

ILZ003-004-008-010-011-017-018-182300-
NORTH CENTRAL ILLINOIS

CITY           SKY/WX    TMP DP  RH WIND       PRES   REMARKS
ROCKFORD       CLOUDY    26  16  65 N7        30.26R WCI  18
FREEPORT*      CLOUDY    25  17  73 CALM      30.26S
ROCHELLE*      CLOUDY    25  19  75 CALM      30.25S
DE KALB*       CLOUDY    24  17  75 N5        30.24R WCI  18
PERU*          MOCLDY    26  20  76 NW7       30.26S WCI  19
$$

ILZ005-006-012>014-019>023-182300-
NORTHEAST ILLINOIS

CITY           SKY/WX    TMP DP  RH WIND       PRES   REMARKS
CHICAGO-OHARE  CLOUDY    28  19  69 W5        30.22S WCI  23
CHICAGO-MIDWAY CLOUDY    29  19  66 SW6       30.23S WCI  23
AURORA         CLOUDY    28  18  66 NW5       30.24S WCI  23
LANSING*       CLOUDY    27  18  71 CALM      30.24S
JOLIET*        MOCLDY    25  17  71 CALM      30.25S
WAUKEGAN       CLOUDY    28  19  69 W6        30.22S WCI  22
DUPAGE AIRPORT CLOUDY    28  18  66 NW6       30.22S WCI  22
KANKAKEE*      CLOUDY    27  21  76 W5        30.25S WCI  22
WHEELING       CLOUDY    28  18  66 NW6       30.25R WCI  22
MORRIS*        CLOUDY    27  20  77 N3        30.24S
ROMEOVILLE*    CLOUDY    26  18  73 W5        30.24S WCI  20
NORTHERLY ISL    N/A     29  20  69 NE3         N/A
$$

LMZ740>746-182300-
SOUTHERN LAKE MICHIGAN

STATION/POSITION SKY/WX   TEMP    WIND        PRES    VSBY  WAVE
                          AIR SEA DIR/SP/G                  HT/PER
                          (F)     (DEG/KT/KT) (MB)    (MI)  (FT/S)
WAUKEGAN HARBOR            28     320/  2/  7   N/A
HARRISON CRIB              27     360/  4/  6   N/A
BURNHAM HARBOR             29      70/  5/  6   N/A
CALUMET HARBOR             27     200/  3/  5 1022.6F
$$

ILZ025>027-034>036-040-047-049-050-058-095>099-182300-
WEST-CENTRAL ILLINOIS

CITY           SKY/WX    TMP DP  RH WIND       PRES   REMARKS
QUINCY         CLOUDY    29  24  82 N5        30.24R WCI  24
GALESBURG*     PTCLDY    27  20  77 NW3       30.24S
MACOMB*        CLOUDY    29  22  75 CALM      30.27S
JACKSONVILLE*  CLOUDY    31  27  83 CALM      30.25S
PITTSFIELD*    CLOUDY    30  26  85 N5        30.25S WCI  26
$$

ILZ028>032-037-038-041>044-048-051>054-059>061-182300-
CENTRAL ILLINOIS

CITY           SKY/WX    TMP DP  RH WIND       PRES   REMARKS
PONTIAC        CLOUDY    28  22  77 NW6       30.25S WCI  22
BLOOMINGTON    CLOUDY    28  21  75 CALM      30.24S
DECATUR        CLOUDY    29  24  82 SE3       30.25R HAZE
PEORIA         PTCLDY    29  18  63 NE5       30.25R WCI  24
LACON*         MOCLDY    28  18  68 CALM      30.25R
LINCOLN*       CLOUDY    30  24  78 CALM      30.27R
SPRINGFIELD    CLOUDY    31  24  75 N3        30.26R
TAYLORVILLE    CLOUDY    28  25  86 NE3       30.25S
$$

ILZ033-039-045-046-055>057-062-063-182300-
EAST-CENTRAL ILLINOIS

CITY           SKY/WX    TMP DP  RH WIND       PRES   REMARKS
CHAMPAIGN      CLOUDY    28  23  81 NW3       30.24S
DANVILLE*      CLOUDY    28  22  79 CALM      30.22S
RANTOUL*       CLOUDY    30  24  77 NW3       30.24S
MATTOON        CLOUDY    29  21  72 NW5       30.23S WCI  24
PARIS*         CLOUDY    30  24  79 CALM      30.25S
$$

ILZ079-100>102-182300-
SOUTHWEST ILLINOIS

CITY           SKY/WX    TMP DP  RH WIND       PRES   REMARKS
ALTON          CLOUDY    34  23  64 N6        30.24S WCI  29
BELLEVILLE     CLOUDY    34  28  78 E1        30.23S
CAHOKIA*       CLOUDY    35  30  82 CALM      30.24R
SPARTA*        CLOUDY    33  31  92 CALM      30.24S
$$

ILZ064>066-069>071-074>076-080>082-084>086-088>090-092>094-182300-
SOUTH-CENTRAL ILLINOIS

CITY           SKY/WX    TMP DP  RH WIND       PRES   REMARKS
CARBONDALE     CLOUDY    34  29  82 NE5       30.24R WCI  30
CAIRO*         CLOUDY    38  34  85 NE6       30.23S WCI  33
EFFINGHAM*     CLOUDY    32  22  65 CALM      30.26R
MARION         CLOUDY    36  32  87 N6        30.25R WCI  31
MT. VERNON     CLOUDY    34  23  64 NE5       30.24F WCI  30
CENTRALIA*     CLOUDY    33  24  69 E3        30.23F
SALEM*         CLOUDY    34  26  71 NE3       30.24S
METROPOLIS*    CLOUDY    36  35  95 CALM      30.23S
$$

ILZ067-068-072-073-078-083-087-091-182300-
SOUTHEAST ILLINOIS

CITY           SKY/WX    TMP DP  RH WIND       PRES   REMARKS
LAWRENCEVILLE  CLOUDY    32  23  69 CALM      30.25S
FLORA*         MOCLDY    31  24  77 CALM      30.25S
FAIRFIELD*     CLOUDY    32  25  74 NE3       30.24S
HARRISBURG*    CLOUDY    34  28  80 CALM      30.26S
ROBINSON*      CLOUDY    31  24  75 CALM      30.26R
CARMI*         CLOUDY    35  28  77 CALM      30.24S
$$

ABBREVIATIONS USED IN REMARKS
   TC - TEMPERATURE IN CELSIUS
  WCI - WIND CHILL INDEX
   HX - HEAT INDEX
  VSB - VISIBILITY
$$



USA.gov is the U.S. government's official web portal to all federal, state and local government web resources and services.